Flag for Germany Weather past 2 weeks in Velbert, North Rhine-Westphalia, Germany

Now
50 °F

Fog.


Feels Like: 50 °F
Forecast: 46 / 57 °F
Wind: 2 mph from South

Location: Essen

Current Time: May 29, 2015 at 4:30:53 AM

Latest Report: May 29, 2015 at 4:00 AM


Visibility: 2 mi

Pressure: 29.92 "Hg

Humidity: 100%

Dew point: 50 °F

Location of VelbertLocation

Historic Weather in Velbert — Graph

°F

Velbert temperature yesterday

Maximum temperature yesterday: 64 °F (at 2:00 PM)
Minimum temperature yesterday: 52 °F (at 11:00 PM)
Average temperature yesterday: 56 °F

Past Weeks' High & Low Weather Summary

 TemperatureHumidityPressure
High67 °F (May 22, 4:00 PM)100% (May 16, 4:00 PM)30.34 "Hg (May 16, 4:00 PM)
Low42 °F (May 16, 6:00 AM)42% (May 22, 5:00 PM)29.64 "Hg (May 18, 9:00 PM)
Average54 °F70%30.07 "Hg
* Reported May 14 3:00 AM — May 29 3:00 AM, Velbert, Weather by CustomWeather, © 2015

Note: Actual official high and low records may vary slightly from our data, if they occured in-between our weather recording intervals... More about our weather records

Advertising

Velbert weather history for previous 24 hours

 ConditionsComfort  
Time TempWeatherWind HumidityBarometerVisibility
3:00 AM
Fri, May 29
51 °FFog.1 mph97%29.95 "Hg3 mi
2:00 AM50 °FFog.2 mph100%29.96 "Hg3 mi
1:00 AM51 °FOvercast.1 mph100%29.96 "Hg2 mi
11:00 PM
Thu, May 28
52 °FOvercast.1 mph100%29.97 "Hg2 mi
10:00 PM53 °FFog.1 mph99%29.96 "Hg4 mi
9:00 PM53 °FOvercast.1 mph100%29.95 "Hg3 mi
8:00 PM53 °FLight rain. Low clouds.2 mph99%29.94 "Hg3 mi
7:00 PM53 °FLight rain. Low clouds.2 mph97%29.93 "Hg6 mi
6:00 PM53 °FLow clouds.2 mph94%29.93 "Hg9 mi
5:00 PM53 °FRain. Low clouds.3 mph95%29.92 "Hg3 mi
4:00 PM63 °FPassing clouds.8 mph61%29.91 "Hg19 mi
3:00 PM61 °FOvercast.7 mph60%29.92 "Hg25 mi
2:00 PM64 °FPartly sunny.7 mph50%29.91 "Hg16 mi
1:00 PM62 °FOvercast.7 mph56%29.92 "Hg17 mi
12:00 PM60 °FOvercast.8 mph59%29.93 "Hg22 mi
11:00 AM60 °FOvercast.7 mph63%29.93 "Hg25 mi
10:00 AM61 °FOvercast.6 mph60%29.94 "Hg22 mi
9:00 AM58 °FOvercast.6 mph66%29.95 "Hg22 mi
8:00 AM55 °FOvercast.5 mph69%29.96 "Hg19 mi
7:00 AM54 °FOvercast.3 mph69%29.96 "Hg22 mi
6:00 AM53 °FOvercast.3 mph69%29.97 "Hg22 mi
5:00 AM53 °FOvercast.2 mph69%29.98 "Hg22 mi
4:00 AM53 °FOvercast.2 mph66%29.99 "Hg22 mi
Weather by CustomWeather, © 2015

See weather overviewHow to use our weather pages